^^
Saratoga-Weather Station Historical Data
Daily Summary for January 16, 2020 Units:  English    Metric   Both
Daily Weekly Monthly Yearly Custom
  High: Low: Average:
Temperature: 63.9 °F 48.6 °F 55.9 °F
Dew Point: 49.1 °F 41.7 °F 45.1 °F
Humidity: 90% 52% 68%
Wind Speed: 19.9mph 0mph 3.7mph
Wind Gust: 23mph - -
Wind- - SSW
Pressure: 30 in 29.8 in -
Precipitation: 0.13 in    
Historical Graphs
 
 
Tabular Data for January 16, 2020
Time Temperature Dew Point Pressure Wind Wind Speed Wind Gust Humidity Rainfall Rate (Hourly) solar
00:04 51.6 °F 41.7 °F 30 in ENE 2 mph 2 mph 69% 0 in 0 W/m2
00:09 51.6 °F 41.7 °F 30 in Calm   3 mph 69% 0 in 0 W/m2
00:14 51.6 °F 41.7 °F 30 in Calm   4 mph 69% 0 in 0 W/m2
00:19 51.6 °F 41.7 °F 30 in NE 4.9 mph 6 mph 69% 0 in 0 W/m2
00:24 51.8 °F 41.9 °F 30 in ENE 0.9 mph 4 mph 69% 0 in 0 W/m2
00:29 52 °F 42.1 °F 30 in NE 2 mph 4 mph 69% 0 in 0 W/m2
00:34 52 °F 42.1 °F 30 in NW 2.9 mph 4 mph 69% 0 in 0 W/m2
00:39 52 °F 42.1 °F 30 in NNW 4 mph 5 mph 69% 0 in 0 W/m2
00:44 52 °F 42.1 °F 30 in NE 2.9 mph 3 mph 69% 0 in 0 W/m2
00:49 52.2 °F 42.3 °F 30 in SSE 6 mph 7 mph 69% 0 in 0 W/m2
00:54 52.2 °F 42.3 °F 30 in South 2 mph 12 mph 69% 0 in 0 W/m2
00:59 52.3 °F 42.4 °F 30 in West 4 mph 10 mph 69% 0 in 0 W/m2
01:04 52.5 °F 42.6 °F 30 in WNW 4.9 mph 6 mph 69% 0 in 0 W/m2
01:09 52.7 °F 42.4 °F 30 in North 4 mph 9 mph 68% 0 in 0 W/m2
01:14 52.9 °F 42.6 °F 30 in WNW 8.9 mph 9 mph 68% 0 in 0 W/m2
01:20 53.1 °F 42.8 °F 30 in North 0.9 mph 4 mph 68% 0 in 0 W/m2
01:25 53.1 °F 42.8 °F 30 in NNW 4 mph 4 mph 68% 0 in 0 W/m2
01:30 53.1 °F 42.8 °F 30 in North 0.9 mph 2 mph 68% 0 in 0 W/m2
01:35 53.1 °F 42.8 °F 30 in West 0.9 mph 5 mph 68% 0 in 0 W/m2
01:40 53.2 °F 43 °F 30 in Calm   5 mph 68% 0 in 0 W/m2
01:45 53.2 °F 43 °F 30 in WSW 0.9 mph 7 mph 68% 0 in 0 W/m2
01:50 53.2 °F 43 °F 30 in NW 2.9 mph 5 mph 68% 0 in 0 W/m2
01:55 53.2 °F 43 °F 30 in NE 4 mph 4 mph 68% 0 in 0 W/m2
02:00 53.2 °F 43 °F 30 in NW 0.9 mph 5 mph 68% 0 in 0 W/m2
02:05 53.2 °F 43 °F 30 in East 2.9 mph 3 mph 68% 0 in 0 W/m2
02:10 53.2 °F 43 °F 30 in ESE 0.9 mph 4 mph 68% 0 in 0 W/m2
02:15 53.2 °F 43 °F 30 in SSE 4 mph 9 mph 68% 0 in 0 W/m2
02:20 53.2 °F 43 °F 30 in ESE 0.9 mph 4 mph 68% 0 in 0 W/m2
02:25 53.2 °F 43 °F 30 in Calm   4 mph 68% 0 in 0 W/m2
02:30 53.2 °F 43 °F 30 in ENE 2.9 mph 5 mph 68% 0 in 0 W/m2
02:35 53.2 °F 43 °F 30 in North 4 mph 4 mph 68% 0 in 0 W/m2
02:40 53.2 °F 43 °F 30 in North 2.9 mph 4 mph 68% 0 in 0 W/m2
02:45 53.2 °F 43 °F 30 in NNE 0.9 mph 4 mph 68% 0 in 0 W/m2
02:50 53.2 °F 43 °F 30 in NNW 4 mph 10 mph 68% 0 in 0 W/m2
02:55 53.2 °F 43 °F 30 in ESE 2 mph 8 mph 68% 0 in 0 W/m2
03:00 53.2 °F 43 °F 30 in WNW 2 mph 10 mph 68% 0 in 0 W/m2
03:05 53.2 °F 43 °F 30 in WNW 4 mph 6 mph 68% 0 in 0 W/m2
03:10 53.2 °F 43 °F 30 in North 2.9 mph 9 mph 68% 0 in 0 W/m2
03:15 53.4 °F 43.2 °F 30 in NNW 2.9 mph 3 mph 68% 0 in 0 W/m2
03:20 53.2 °F 43 °F 30 in SSE 2 mph 5 mph 68% 0 in 0 W/m2
03:25 53.4 °F 43.2 °F 30 in NNW 2 mph 9 mph 68% 0 in 0 W/m2
03:30 53.4 °F 43.2 °F 30 in North 0.9 mph 5 mph 68% 0 in 0 W/m2
03:36 53.4 °F 43.2 °F 30 in North 4 mph 9 mph 68% 0 in 0 W/m2
03:41 53.2 °F 43 °F 30 in North 2 mph 5 mph 68% 0 in 0 W/m2
03:46 53.2 °F 43 °F 30 in NE 4 mph 5 mph 68% 0 in 0 W/m2
03:51 53.2 °F 43 °F 30 in ENE 2.9 mph 6 mph 68% 0 in 0 W/m2
03:56 53.4 °F 43.2 °F 30 in ENE 0.9 mph 2 mph 68% 0 in 0 W/m2
04:01 53.4 °F 43.2 °F 30 in NNW 2 mph 7 mph 68% 0 in 0 W/m2
04:06 53.6 °F 43.3 °F 30 in East 2 mph 7 mph 68% 0 in 0 W/m2
04:11 53.8 °F 43.5 °F 30 in Calm   3 mph 68% 0 in 0 W/m2
04:16 53.6 °F 43.3 °F 30 in NE 7 mph 7 mph 68% 0 in 0 W/m2
04:21 53.1 °F 43.2 °F 29.9 in ENE 2 mph 5 mph 69% 0 in 0 W/m2
04:26 52.3 °F 42.8 °F 29.9 in ENE 2 mph 4 mph 70% 0 in 0 W/m2
04:31 52 °F 42.8 °F 30 in ESE 2 mph 3 mph 71% 0 in 0 W/m2
04:36 51.4 °F 42.8 °F 29.9 in ESE 2 mph 2 mph 72% 0 in 0 W/m2
04:42 51.3 °F 42.6 °F 29.9 in ENE 2 mph 3 mph 72% 0 in 0 W/m2
04:47 51.4 °F 43.2 °F 30 in ESE 6 mph 8 mph 73% 0 in 0 W/m2
04:52 52 °F 43.2 °F 30 in Calm   2 mph 72% 0 in 0 W/m2
04:57 52.3 °F 43.2 °F 30 in ESE 2 mph 8 mph 71% 0 in 0 W/m2
05:02 52.5 °F 43 °F 30 in NE 2.9 mph 4 mph 70% 0 in 0 W/m2
05:07 52.9 °F 43.3 °F 30 in WNW 0.9 mph 3 mph 70% 0 in 0 W/m2
05:12 52.9 °F 43 °F 30 in ENE 2.9 mph 6 mph 69% 0 in 0 W/m2
05:17 53.1 °F 43.2 °F 29.9 in North 0.9 mph 8 mph 69% 0 in 0 W/m2
05:22 53.1 °F 43.2 °F 29.9 in NNW 0.9 mph 4 mph 69% 0 in 0 W/m2
05:27 53.2 °F 43 °F 30 in East 2.9 mph 8 mph 68% 0 in 0 W/m2
05:32 53.4 °F 43.2 °F 29.9 in NNE 2.9 mph 4 mph 68% 0 in 0 W/m2
05:37 53.4 °F 43.2 °F 29.9 in East 0.9 mph 9 mph 68% 0 in 0 W/m2
05:42 53.6 °F 43.3 °F 30 in NNW 4.9 mph 6 mph 68% 0 in 0 W/m2
05:47 53.8 °F 43.2 °F 29.9 in NNW 4 mph 4 mph 67% 0 in 0 W/m2
05:52 53.8 °F 43.5 °F 30 in Calm   8 mph 68% 0 in 0 W/m2
05:57 53.8 °F 43.5 °F 30 in WSW 2 mph 9 mph 68% 0 in 0 W/m2
06:02 53.8 °F 43.5 °F 30 in North 2 mph 3 mph 68% 0 in 0 W/m2
06:07 53.8 °F 43.9 °F 30 in NE 2.9 mph 6 mph 69% 0 in 0 W/m2
06:12 53.8 °F 43.9 °F 30 in NE 4 mph 4 mph 69% 0 in 0 W/m2
06:17 53.4 °F 43.9 °F 29.9 in Calm   2 mph 70% 0 in 0 W/m2
06:22 53.4 °F 43.9 °F 29.9 in West 2.9 mph 7 mph 70% 0 in 0 W/m2
06:27 53.2 °F 44.1 °F 29.9 in WNW 2.9 mph 3 mph 71% 0 in 0 W/m2
06:32 53.2 °F 44.4 °F 29.9 in SW 0.9 mph 1 mph 72% 0 in 0 W/m2
06:37 53.1 °F 44.6 °F 29.9 in ENE 0.9 mph 3 mph 73% 0 in 0 W/m2
06:42 52.9 °F 44.8 °F 29.9 in WNW 0.9 mph 8 mph 74% 0 in 0 W/m2
06:47 52.5 °F 44.4 °F 29.9 in NW 2 mph 3 mph 74% 0 in 0 W/m2
06:52 52.5 °F 44.8 °F 29.9 in NW 2.9 mph 8 mph 75% 0 in 0 W/m2
06:57 52.3 °F 45 °F 29.9 in WNW 0.9 mph 2 mph 76% 0.01 in 0 W/m2
07:02 52.3 °F 45.3 °F 29.9 in SSE 0.9 mph 4 mph 77% 0.01 in 0 W/m2
07:07 52 °F 45.3 °F 29.9 in North 0.9 mph 2 mph 78% 0.01 in 0 W/m2
07:12 51.8 °F 45.9 °F 29.9 in East 2.9 mph 3 mph 80% 0.01 in 0 W/m2
07:17 51.3 °F 45.7 °F 29.9 in ESE 2.9 mph 5 mph 81% 0.02 in 0 W/m2
07:22 51.1 °F 45.9 °F 29.9 in NE 2 mph 3 mph 82% 0.02 in 0 W/m2
07:27 50.7 °F 45.5 °F 29.9 in NE 2 mph 3 mph 82% 0.02 in 0 W/m2
07:32 50.7 °F 45.7 °F 29.9 in NE 0.9 mph 4 mph 83% 0.02 in 0 W/m2
07:37 50.5 °F 45.5 °F 29.9 in South 0.9 mph 3 mph 83% 0.02 in 0 W/m2
07:42 50.4 °F 45.3 °F 29.9 in North 2.9 mph 4 mph 83% 0.02 in 0 W/m2
07:47 50.2 °F 45.5 °F 29.9 in NE 4 mph 4 mph 84% 0.03 in 0 W/m2
07:52 50.2 °F 45.5 °F 29.9 in NE 4 mph 5 mph 84% 0.03 in 0 W/m2
07:57 50 °F 45.7 °F 29.9 in North 2 mph 3 mph 85% 0.02 in 0 W/m2
08:02 49.8 °F 45.5 °F 29.9 in NE 0.9 mph 3 mph 85% 0.03 in 0 W/m2
08:07 49.6 °F 45.3 °F 29.9 in North 2 mph 4 mph 85% 0.03 in 5 W/m2
08:12 49.6 °F 45.3 °F 29.9 in East 0.9 mph 4 mph 85% 0.04 in 7 W/m2
08:18 49.6 °F 45.7 °F 29.9 in NNE 0.9 mph 2 mph 86% 0.03 in 7 W/m2
08:23 49.6 °F 45.3 °F 29.9 in Calm   4 mph 85% 0.03 in 9 W/m2
08:28 49.6 °F 45.9 °F 29.9 in NE 2 mph 3 mph 87% 0.03 in 11 W/m2
08:33 49.5 °F 45.7 °F 29.9 in East 0.9 mph 2 mph 87% 0.04 in 16 W/m2
08:38 49.3 °F 45.5 °F 29.9 in ENE 2 mph 4 mph 87% 0.03 in 18 W/m2
08:43 49.3 °F 45.5 °F 29.9 in ENE 0.9 mph 6 mph 87% 0.03 in 19 W/m2
08:48 49.5 °F 45.7 °F 29.9 in NE 2 mph 6 mph 87% 0.02 in 21 W/m2
08:53 49.5 °F 45.5 °F 29.9 in ENE 0.9 mph 4 mph 86% 0.02 in 25 W/m2
08:58 49.5 °F 45.5 °F 29.9 in NW 2.9 mph 6 mph 86% 0.02 in 25 W/m2
09:03 49.5 °F 45.5 °F 29.9 in Calm   2 mph 86% 0.02 in 21 W/m2
09:08 49.5 °F 45.5 °F 29.9 in East 0.9 mph 4 mph 86% 0.02 in 21 W/m2
09:13 49.6 °F 45.3 °F 29.9 in North 2.9 mph 4 mph 85% 0.02 in 18 W/m2
09:18 49.8 °F 45.1 °F 29.9 in ENE 4.9 mph 5 mph 84% 0.02 in 18 W/m2
09:23 50.2 °F 45.5 °F 29.9 in ENE 0.9 mph 2 mph 84% 0.02 in 30 W/m2
09:28 50.2 °F 45.5 °F 29.9 in ESE 2.9 mph 6 mph 84% 0.02 in 46 W/m2
09:33 50.4 °F 45.7 °F 29.9 in ENE 2 mph 7 mph 84% 0.01 in 63 W/m2
09:38 50.4 °F 45.3 °F 29.9 in ENE 2 mph 8 mph 83% 0.01 in 58 W/m2
09:43 50.5 °F 45.3 °F 29.9 in SE 2 mph 4 mph 82% 0.01 in 76 W/m2
09:48 50.9 °F 45.7 °F 29.9 in NNE 2.9 mph 4 mph 82% 0.01 in 83 W/m2
09:53 51.3 °F 45 °F 29.9 in East 2 mph 6 mph 79% 0.01 in 100 W/m2
09:58 51.6 °F 45.3 °F 29.9 in NE 0.9 mph 2 mph 79% 0.01 in 118 W/m2
10:03 52 °F 45 °F 29.9 in North 2 mph 2 mph 77% 0 in 135 W/m2
10:08 52.3 °F 45 °F 29.9 in NW 2 mph 8 mph 76% 0 in 144 W/m2
10:13 52.7 °F 45 °F 29.9 in NE 4 mph 8 mph 75% 0 in 156 W/m2
10:18 53.1 °F 45 °F 29.9 in NW 4.9 mph 8 mph 74% 0 in 179 W/m2
10:23 53.4 °F 45 °F 29.9 in NE 2 mph 4 mph 73% 0 in 202 W/m2
10:28 54 °F 45.1 °F 29.9 in NNW 10.1 mph 10 mph 72% 0 in 229 W/m2
10:33 54.3 °F 44.4 °F 29.9 in East 4 mph 12 mph 69% 0 in 178 W/m2
10:38 54.9 °F 45.3 °F 29.9 in NW 8.1 mph 10 mph 70% 0 in 186 W/m2
10:43 55 °F 44.6 °F 29.9 in ENE 4.9 mph 12 mph 68% 0 in 186 W/m2
10:48 55.4 °F 44.6 °F 29.9 in NNW 2 mph 5 mph 67% 0 in 171 W/m2
10:53 55.8 °F 44.2 °F 29.9 in WNW 8.9 mph 17 mph 65% 0 in 155 W/m2
10:58 55.9 °F 43.9 °F 29.9 in East 2 mph 9 mph 64% 0 in 130 W/m2
11:03 56.1 °F 44.1 °F 29.9 in North 2.9 mph 13 mph 64% 0 in 127 W/m2
11:08 56.5 °F 44.1 °F 29.9 in North 4 mph 10 mph 63% 0 in 174 W/m2
11:13 56.8 °F 43.9 °F 29.9 in NW 10.1 mph 14 mph 62% 0 in 148 W/m2
11:18 56.8 °F 44.4 °F 29.9 in NW 2 mph 10 mph 63% 0 in 171 W/m2
11:23 57 °F 44.1 °F 29.9 in NW 4 mph 15 mph 62% 0 in 167 W/m2
11:28 57 °F 44.1 °F 29.9 in North 4 mph 9 mph 62% 0 in 163 W/m2
11:33 57 °F 44.1 °F 29.9 in WNW 15 mph 15 mph 62% 0 in 146 W/m2
11:38 57.2 °F 44.2 °F 29.9 in NNW 8.1 mph 14 mph 62% 0 in 141 W/m2
11:43 57.4 °F 44.4 °F 29.9 in NNW 2.9 mph 7 mph 62% 0 in 160 W/m2
11:48 57.4 °F 44.4 °F 29.9 in SW 2.9 mph 12 mph 62% 0 in 214 W/m2
11:53 57.6 °F 44.6 °F 29.9 in WNW 4 mph 8 mph 62% 0 in 199 W/m2
11:58 57.7 °F 44.8 °F 29.9 in NNW 2.9 mph 10 mph 62% 0 in 232 W/m2
12:03 57.9 °F 45 °F 29.9 in North 2.9 mph 8 mph 62% 0 in 232 W/m2
12:08 58.3 °F 45.3 °F 29.9 in NW 6 mph 8 mph 62% 0 in 308 W/m2
12:13 58.5 °F 45.1 °F 29.9 in NNW 6 mph 10 mph 61% 0 in 341 W/m2
12:18 58.8 °F 45.3 °F 29.8 in NNW 2 mph 9 mph 61% 0 in 308 W/m2
12:23 59.4 °F 45.5 °F 29.9 in West 6 mph 9 mph 60% 0 in 239 W/m2
12:28 59.5 °F 45.7 °F 29.8 in West 4 mph 12 mph 60% 0 in 283 W/m2
12:33 59.9 °F 45.5 °F 29.8 in NW 4.9 mph 10 mph 59% 0 in 290 W/m2
12:38 60.3 °F 45.5 °F 29.8 in West 8.1 mph 12 mph 58% 0 in 218 W/m2
12:43 60.6 °F 45.3 °F 29.8 in WNW 4 mph 11 mph 57% 0 in 251 W/m2
12:48 61.2 °F 44.8 °F 29.8 in West 6.9 mph 17 mph 55% 0 in 234 W/m2
12:53 61.3 °F 45 °F 29.8 in West 14.1 mph 20 mph 55% 0 in 246 W/m2
12:58 61.5 °F 44.8 °F 29.8 in WSW 2 mph 14 mph 54% 0 in 221 W/m2
13:03 61.9 °F 45.5 °F 29.8 in NW 4.9 mph 10 mph 55% 0 in 230 W/m2
13:08 62.1 °F 45.7 °F 29.8 in NW 4 mph 12 mph 55% 0 in 239 W/m2
13:13 62.2 °F 45.3 °F 29.8 in NW 12.1 mph 12 mph 54% 0 in 246 W/m2
13:18 62.4 °F 45.5 °F 29.8 in NNW 2 mph 8 mph 54% 0 in 230 W/m2
13:23 62.6 °F 45.1 °F 29.8 in SW 4 mph 4 mph 53% 0 in 193 W/m2
13:28 62.6 °F 45.1 °F 29.8 in NNW 0.9 mph 15 mph 53% 0 in 192 W/m2
13:33 62.6 °F 44.8 °F 29.8 in WNW 16.1 mph 16 mph 52% 0 in 151 W/m2
13:38 62.4 °F 45.1 °F 29.8 in ENE 2 mph 13 mph 53% 0 in 158 W/m2
13:43 62.6 °F 45.1 °F 29.8 in NW 4 mph 11 mph 53% 0 in 178 W/m2
13:48 62.8 °F 45.3 °F 29.8 in NW 8.9 mph 11 mph 53% 0 in 172 W/m2
13:53 62.8 °F 45.3 °F 29.8 in West 11 mph 11 mph 53% 0 in 190 W/m2
13:58 63 °F 45.5 °F 29.8 in West 2 mph 7 mph 53% 0 in 199 W/m2
14:03 63 °F 45.5 °F 29.8 in WNW 4 mph 10 mph 53% 0 in 190 W/m2
14:09 63 °F 45.5 °F 29.8 in WNW 4 mph 7 mph 53% 0 in 190 W/m2
14:14 63.1 °F 45.7 °F 29.8 in WNW 2 mph 7 mph 53% 0 in 174 W/m2
14:19 63.1 °F 45.7 °F 29.8 in NNW 4 mph 14 mph 53% 0 in 190 W/m2
14:30 63.5 °F 46 °F 29.8 in WNW 4 mph 4 mph 53% 0 in 202 W/m2
14:35 63.7 °F 46.2 °F 29.8 in Calm   8 mph 53% 0 in 186 W/m2
14:40 63.7 °F 46.2 °F 29.8 in WSW 2.9 mph 8 mph 53% 0 in 188 W/m2
14:45 63.7 °F 45.7 °F 29.8 in East 4.9 mph 6 mph 52% 0 in 183 W/m2
14:50 63.9 °F 45.9 °F 29.8 in East 8.1 mph 14 mph 52% 0 in 178 W/m2
14:55 63.9 °F 45.9 °F 29.8 in South 4.9 mph 11 mph 52% 0 in 163 W/m2
15:00 63.9 °F 45.9 °F 29.8 in North 4 mph 5 mph 52% 0 in 160 W/m2
15:05 63.9 °F 45.9 °F 29.8 in West 15 mph 15 mph 52% 0 in 153 W/m2
15:10 63.9 °F 45.9 °F 29.8 in NNW 2 mph 4 mph 52% 0 in 135 W/m2
15:15 63.9 °F 46.4 °F 29.8 in ENE 4 mph 6 mph 53% 0 in 114 W/m2
15:20 63.9 °F 46.4 °F 29.8 in East 2 mph 5 mph 53% 0 in 116 W/m2
15:25 63.7 °F 45.7 °F 29.8 in NNW 0.9 mph 7 mph 52% 0 in 121 W/m2
15:30 63.3 °F 45.9 °F 29.8 in NNW 2.9 mph 5 mph 53% 0 in 125 W/m2
15:35 63.1 °F 45.7 °F 29.8 in NE 2 mph 8 mph 53% 0 in 116 W/m2
15:40 63 °F 45.5 °F 29.8 in WNW 4 mph 15 mph 53% 0 in 111 W/m2
15:45 62.8 °F 45.9 °F 29.8 in WNW 4 mph 4 mph 54% 0 in 102 W/m2
15:50 62.6 °F 45.7 °F 29.8 in East 8.9 mph 15 mph 54% 0 in 93 W/m2
15:55 62.4 °F 46 °F 29.8 in ENE 2 mph 3 mph 55% 0 in 95 W/m2
16:00 62.1 °F 46.2 °F 29.8 in North 4.9 mph 9 mph 56% 0 in 83 W/m2
16:05 61.9 °F 46.4 °F 29.8 in Calm   5 mph 57% 0 in 79 W/m2
16:10 61.5 °F 46.2 °F 29.8 in North 0.9 mph 8 mph 57% 0 in 77 W/m2
16:15 61.3 °F 46 °F 29.8 in ENE 0.9 mph 10 mph 57% 0 in 79 W/m2
16:20 61.2 °F 46.2 °F 29.8 in NNW 2.9 mph 6 mph 58% 0 in 72 W/m2
16:25 61 °F 46 °F 29.8 in East 4 mph 10 mph 58% 0 in 62 W/m2
16:30 60.8 °F 45.9 °F 29.8 in North 2 mph 4 mph 58% 0 in 58 W/m2
16:35 60.4 °F 45.7 °F 29.8 in North 4 mph 10 mph 58% 0 in 58 W/m2
16:40 60.3 °F 45.9 °F 29.8 in NNW 6 mph 6 mph 59% 0 in 51 W/m2
16:45 60.1 °F 45.7 °F 29.8 in NNE 2 mph 10 mph 59% 0 in 46 W/m2
16:50 59.9 °F 45.5 °F 29.8 in NNE 2.9 mph 5 mph 59% 0 in 40 W/m2
16:55 59.5 °F 45.7 °F 29.8 in North 4.9 mph 5 mph 60% 0 in 33 W/m2
17:00 59.4 °F 45.5 °F 29.8 in NNE 2 mph 5 mph 60% 0 in 30 W/m2
17:05 59.2 °F 45.7 °F 29.8 in NW 2.9 mph 7 mph 61% 0 in 30 W/m2
17:10 59.2 °F 45.7 °F 29.8 in NNW 4 mph 5 mph 61% 0 in 23 W/m2
17:15 59 °F 45.5 °F 29.8 in ENE 2 mph 6 mph 61% 0 in 18 W/m2
17:20 58.8 °F 45.3 °F 29.8 in ENE 2.9 mph 5 mph 61% 0 in 14 W/m2
17:25 58.8 °F 45.9 °F 29.8 in ENE 2 mph 4 mph 62% 0 in 12 W/m2
17:30 58.6 °F 45.7 °F 29.8 in NE 6 mph 9 mph 62% 0 in 9 W/m2
17:35 58.6 °F 45.7 °F 29.8 in East 6 mph 14 mph 62% 0 in 7 W/m2
17:40 58.8 °F 45.9 °F 29.8 in NE 2.9 mph 12 mph 62% 0 in 5 W/m2
17:45 58.8 °F 45.9 °F 29.8 in WNW 4.9 mph 15 mph 62% 0 in 0 W/m2
17:50 58.8 °F 45.9 °F 29.8 in NNW 2.9 mph 6 mph 62% 0 in 0 W/m2
17:55 58.8 °F 45.9 °F 29.8 in NE 2 mph 13 mph 62% 0 in 0 W/m2
18:01 58.8 °F 45.9 °F 29.8 in East 2 mph 5 mph 62% 0 in 0 W/m2
18:06 58.6 °F 45.7 °F 29.8 in NNW 6 mph 12 mph 62% 0 in 0 W/m2
18:11 58.6 °F 46 °F 29.8 in WNW 0.9 mph 9 mph 63% 0 in 0 W/m2
18:16 58.6 °F 46 °F 29.8 in WNW 4 mph 10 mph 63% 0 in 0 W/m2
18:21 58.6 °F 46 °F 29.8 in WNW 0.9 mph 10 mph 63% 0 in 0 W/m2
18:26 58.6 °F 46 °F 29.8 in NNE 4 mph 4 mph 63% 0 in 0 W/m2
18:31 58.5 °F 45.9 °F 29.8 in Calm   9 mph 63% 0 in 0 W/m2
18:36 58.5 °F 45.9 °F 29.8 in ENE 4 mph 8 mph 63% 0 in 0 W/m2
18:41 58.5 °F 45.9 °F 29.8 in West 10.1 mph 11 mph 63% 0 in 0 W/m2
18:46 58.5 °F 46.4 °F 29.8 in NW 4.9 mph 13 mph 64% 0 in 0 W/m2
18:51 58.5 °F 46.4 °F 29.8 in NW 2.9 mph 8 mph 64% 0 in 0 W/m2
18:56 58.5 °F 46.4 °F 29.8 in NW 6 mph 9 mph 64% 0 in 0 W/m2
19:01 58.6 °F 46.6 °F 29.8 in WSW 4 mph 12 mph 64% 0 in 0 W/m2
19:06 58.6 °F 46.6 °F 29.8 in West 6.9 mph 16 mph 64% 0 in 0 W/m2
19:11 58.6 °F 46.6 °F 29.8 in NNW 10.1 mph 10 mph 64% 0 in 0 W/m2
19:16 58.6 °F 46.6 °F 29.8 in NW 2.9 mph 9 mph 64% 0 in 0 W/m2
19:21 58.6 °F 46.6 °F 29.8 in WNW 4.9 mph 8 mph 64% 0 in 0 W/m2
19:26 58.6 °F 46.6 °F 29.8 in NW 4 mph 7 mph 64% 0 in 0 W/m2
19:31 58.6 °F 46.6 °F 29.8 in South 2 mph 2 mph 64% 0 in 0 W/m2
19:36 58.6 °F 46.6 °F 29.8 in NNW 10.1 mph 10 mph 64% 0 in 0 W/m2
19:42 58.6 °F 46.6 °F 29.8 in WNW 4.9 mph 13 mph 64% 0 in 0 W/m2
19:47 58.6 °F 46.6 °F 29.8 in NW 4.9 mph 12 mph 64% 0 in 0 W/m2
19:52 58.6 °F 46.6 °F 29.8 in NNW 4.9 mph 8 mph 64% 0 in 0 W/m2
19:57 58.6 °F 46.9 °F 29.8 in North 6.9 mph 10 mph 65% 0 in 0 W/m2
20:02 58.6 °F 46.9 °F 29.8 in ENE 4 mph 8 mph 65% 0 in 0 W/m2
20:07 58.6 °F 46.9 °F 29.8 in ENE 4 mph 7 mph 65% 0 in 0 W/m2
20:12 58.5 °F 47.1 °F 29.8 in NNW 4 mph 17 mph 66% 0 in 0 W/m2
20:17 58.5 °F 47.1 °F 29.8 in WSW 4.9 mph 9 mph 66% 0 in 0 W/m2
20:22 58.5 °F 47.1 °F 29.8 in ENE 4 mph 12 mph 66% 0 in 0 W/m2
20:27 58.3 °F 46.9 °F 29.8 in West 2.9 mph 11 mph 66% 0 in 0 W/m2
20:32 58.3 °F 46.9 °F 29.8 in East 2 mph 11 mph 66% 0 in 0 W/m2
20:37 58.3 °F 47.3 °F 29.8 in NNW 0.9 mph 13 mph 67% 0 in 0 W/m2
20:42 58.3 °F 47.3 °F 29.8 in NW 2.9 mph 9 mph 67% 0 in 0 W/m2
20:47 58.3 °F 47.3 °F 29.8 in North 6 mph 12 mph 67% 0 in 0 W/m2
20:52 58.5 °F 47.1 °F 29.8 in ENE 4 mph 16 mph 66% 0 in 0 W/m2
20:57 58.5 °F 47.1 °F 29.8 in WSW 4.9 mph 12 mph 66% 0 in 0 W/m2
21:02 58.3 °F 47.3 °F 29.8 in NW 8.1 mph 17 mph 67% 0 in 0 W/m2
21:07 58.3 °F 47.3 °F 29.8 in SSW 6 mph 14 mph 67% 0 in 0 W/m2
21:12 58.3 °F 46.9 °F 29.8 in East 2 mph 5 mph 66% 0 in 0 W/m2
21:17 58.3 °F 47.3 °F 29.8 in South 2.9 mph 11 mph 67% 0 in 0 W/m2
21:22 58.3 °F 47.3 °F 29.8 in SSE 8.1 mph 14 mph 67% 0 in 0 W/m2
21:27 58.5 °F 47.1 °F 29.8 in NNW 4.9 mph 11 mph 66% 0 in 0 W/m2
21:32 58.5 °F 47.5 °F 29.8 in NNW 4 mph 10 mph 67% 0 in 0 W/m2
21:37 58.5 °F 47.5 °F 29.8 in NW 8.9 mph 14 mph 67% 0 in 0 W/m2
21:42 58.5 °F 47.5 °F 29.8 in WSW 2 mph 17 mph 67% 0 in 0 W/m2
21:47 58.5 °F 47.5 °F 29.8 in West 8.1 mph 11 mph 67% 0 in 0 W/m2
21:52 58.5 °F 47.5 °F 29.8 in WNW 4 mph 6 mph 67% 0 in 0 W/m2
21:57 58.5 °F 47.5 °F 29.8 in WSW 6.9 mph 12 mph 67% 0 in 0 W/m2
22:02 58.5 °F 47.5 °F 29.8 in North 2.9 mph 14 mph 67% 0 in 0 W/m2
22:07 58.5 °F 47.5 °F 29.8 in NW 2.9 mph 9 mph 67% 0 in 0 W/m2
22:12 58.5 °F 47.5 °F 29.8 in West 6.9 mph 13 mph 67% 0 in 0 W/m2
22:17 58.3 °F 47.3 °F 29.8 in East 6.9 mph 12 mph 67% 0 in 0 W/m2
22:22 58.3 °F 47.3 °F 29.8 in NE 6.9 mph 13 mph 67% 0 in 0 W/m2
22:28 58.3 °F 47.3 °F 29.8 in WNW 2.9 mph 9 mph 67% 0 in 0 W/m2
22:33 58.3 °F 47.8 °F 29.8 in NNE 2.9 mph 6 mph 68% 0 in 0 W/m2
22:38 58.3 °F 47.3 °F 29.8 in NW 2.9 mph 9 mph 67% 0 in 0 W/m2
22:43 58.3 °F 47.8 °F 29.8 in NNE 4 mph 9 mph 68% 0 in 0 W/m2
22:48 57.7 °F 48.4 °F 29.8 in NW 2.9 mph 8 mph 71% 0.01 in 0 W/m2
22:53 57.2 °F 48.6 °F 29.8 in NW 2.9 mph 6 mph 73% 0.01 in 0 W/m2
22:58 56.8 °F 48.6 °F 29.8 in NW 2.9 mph 8 mph 74% 0.01 in 0 W/m2
23:03 55.6 °F 49.1 °F 29.9 in WNW 8.9 mph 19 mph 79% 0.03 in 0 W/m2
23:08 53.2 °F 48.2 °F 29.9 in NNW 8.1 mph 19 mph 83% 0.05 in 0 W/m2
23:13 51.6 °F 47.3 °F 29.9 in WNW 4.9 mph 17 mph 85% 0.05 in 0 W/m2
23:18 50.7 °F 46.9 °F 29.9 in WNW 6.9 mph 19 mph 87% 0.05 in 0 W/m2
23:23 50.2 °F 46.8 °F 29.9 in WNW 19.9 mph 23 mph 88% 0.06 in 0 W/m2
23:28 49.6 °F 46.2 °F 29.9 in WNW 8.1 mph 11 mph 88% 0.06 in 0 W/m2
23:33 49.5 °F 46 °F 29.9 in West 8.9 mph 20 mph 88% 0.06 in 0 W/m2
23:38 49.3 °F 45.9 °F 29.9 in WSW 8.1 mph 11 mph 88% 0.06 in 0 W/m2
23:43 49.1 °F 46 °F 29.9 in WSW 6.9 mph 10 mph 89% 0.06 in 0 W/m2
23:48 48.7 °F 45.7 °F 29.9 in WSW 2.9 mph 7 mph 89% 0.05 in 0 W/m2
23:53 48.7 °F 45.7 °F 29.9 in West 8.9 mph 10 mph 89% 0.05 in 0 W/m2
23:58 48.6 °F 45.7 °F 29.9 in West 4 mph 7 mph 90% 0.06 in 0 W/m2
Juneau County Weather
Compliments of Weather Underground - 4 mb